Regional Weather Roundup
Issued by NWS

Home | Current Version | Previous Version | Graphics & Text | Print | Product List | Glossary On
Versions: 1 2 3 4 5 6 7 8 9 10 11 12 13 14 15 16 17 18 19 20 21 22 23 24 25 26 27 28 29 30 31 32 33 34 35 36 37 38 39 40 41 42 43 44 45 46 47 48 49 50
000
ASUS45 KABQ 211510
RWRNM
NEW MEXICO REGIONAL WEATHER ROUNDUP
NATIONAL WEATHER SERVICE ALBUQUERQUE NM
900 AM MDT MON MAY 21 2018

NOTE: "FAIR" MEANS FEW OR NO CLOUDS BELOW 12,000 FEET AGL WITH NO
       SIGNIFICANT WEATHER OR OBSTRUCTIONS TO VISION.

      THIS PRODUCT IS RELEASED AS TWO VERSIONS.  ONE VERSION NEAR
      THE TOP OF THE HOUR CONTAINING PRELIMINARY DATA FROM ALBUQUERQUE
      AND OTHER STATIONS.  A FINAL VERSION WITH ADDITIONAL DATA IS
      ISSUED ABOUT 10 MINUTES AFTER THE HOUR.

NMZ501-503-504-510>518-211600-
NORTHWEST PLATEAU/NORTHCENTRAL MOUNTAINS

CITY           SKY/WX    TMP DP  RH WIND       PRES   REMARKS
FARMINGTON     FAIR      66  40  38 E9        30.04F
LOS ALAMOS     CLOUDY    56  46  68 S10       30.24R
SANTA FE       FAIR      62  49  62 SE20G28   30.19R
TAOS           FAIR      60  41  49 VRB3      30.24R
ANGEL FIRE     FAIR      54  44  67 S14       30.29R

$$
NMZ402-403-502-505>509-211600-
WESTCENTRAL MOUNTAINS/SOUTHWEST MOUNTAINS

CITY           SKY/WX    TMP DP  RH WIND       PRES   REMARKS
GALLUP         FAIR      66  36  32 S12       30.09F
GRANTS         FAIR      65  39  39 SE16      30.14S
SILVER CITY    FAIR      68  49  51 SE15      30.08R

$$
NMZ407-409-411-412-211600-
SOUTHERN DESERTS

CITY           SKY/WX    TMP DP  RH WIND       PRES   REMARKS
DEMING         FAIR      73  53  49 E15       30.01R
LAS CRUCES     FAIR      72  54  52 SE15G23   30.04S
HOLLOMAN AFB   FAIR      75  51  43 CALM      30.07S
ALAMOGORDO     FAIR      70  48  46 N7        30.06S
T OR C         FAIR      72  52  49 S7        30.05R

$$
NMZ519>523-211600-
CENTRAL VALLEYS/CENTRAL HIGHLANDS

CITY           SKY/WX    TMP DP  RH WIND       PRES   REMARKS
ALBUQUERQUE    CLOUDY    66  49  54 E23G30    30.11R
DOUBLE EAGLE   MOSUNNY   64  48  55 E10       30.15R
MORIARTY ARPT  CLOUDY    63  51  65 SE14      30.22R
CLINES CORNERS CLOUDY    54  49  83 SE17      30.25R
BELEN          FAIR      70  46  42 SE13      30.10R
SOCORRO        FAIR      72  48  42 SE9       30.08R

$$
NMZ524>526-539-540-211600-
SOUTHCENTRAL MOUNTAINS

CITY           SKY/WX    TMP DP  RH WIND       PRES   REMARKS
RUIDOSO        NOT AVBL

$$
NMZ527>531-211600-
NORTHEAST HIGHLANDS/NORTHEAST PLAINS

CITY           SKY/WX    TMP DP  RH WIND       PRES   REMARKS
LAS VEGAS      CLOUDY    57  50  77 S10       30.25R
RATON          FAIR      57  50  77 SW10      30.21R
CLAYTON        FAIR      65  51  60 S21       30.15R

$$
NMZ532>537-211600-
EASTCENTRAL PLAINS

CITY           SKY/WX    TMP DP  RH WIND       PRES   REMARKS
SANTA ROSA     CLOUDY    59  55  87 S8        30.18R THUNDER
TUCUMCARI      CLOUDY    66  56  70 S10       30.14R
CANNON AFB     CLOUDY    60  60 100 SE9       30.20R
CLOVIS AIRPORT CLOUDY    59  57  93 S10       30.20R

$$
NMZ028-029-538-211600-
SOUTHEAST PLAINS

CITY           SKY/WX    TMP DP  RH WIND       PRES   REMARKS
ROSWELL        CLOUDY    68  56  65 S12       30.12S
ARTESIA        CLOUDY    64  61  88 SE9       30.12S
CARLSBAD       CLOUDY    67  57  70 SE7       30.10R
HOBBS          PTSUNNY   64  57  77 E10       30.15R


$$




USA.gov is the U.S. government's official web portal to all federal, state and local government web resources and services.